Weather in Sabanchino

Russia / Chuvash Republic     55°09′26″N   47°54′11″E
temp.,
°C
wind,
m/s
gust,
m/s
humid.,
%
clouds,
%
prec.,
mm/h
press.,
hPa
HPBL,
m
8 may, sat
sat800:00+9nnw4693100 3.8 1016417
03:00+8nne4891100 5.4 1017377
06:00+8nne2493100 0.4 1017277
09:00+9nne2391100 0.8 1018286
12:00+12e227979 0.1 1017654
15:00+15sse336882 0.1 1015921
18:00+15ese237378 0.0 1014111
21:00+11ese5128451 0.0 1013217
9 may, sun
sun900:00+10sse41278100 0.0 1012253
03:00+9sse4884100 0.0 1012130
06:00+11sse5118099 0.0 1012301
09:00+16sse61161100 0.0 1011493
12:00+19sse7952100 0.0 1011916
15:00+20sse71153100 0.0 10111606
18:00+18s71265100 1.6 1011487
21:00+13sse1297100 9.7 101393
10 may, mon
mon1000:00+10nw4795100 1.0 1016264
03:00+8nw589395 1.0 1018332
06:00+7nnw5991100 0.1 1020306
09:00+9n6783100 0.2 1022512
12:00+10n7878100 0.0 1024610
15:00+9n6884100 0.0 1026539
18:00+9nne61084100 0.0 1026524
21:00+7nne61388100 0.0 1028461
11 may, tue
tue1100:00+6nne5129199 0.0 1029369
03:00+5nne5139053 0.0 1029364
06:00+7ne6137964 0.0 1030428
09:00+12ne7957100 0.0 1031660
12:00+15ene6747100 0.0 1030913
15:00+17ene5644100 0.0 1030983
18:00+14ene376198 0.0 1030208
21:00+10ne4869100 0.0 1030113
12 may, wed
wed1200:00+9ene487056 0.0 1031124
03:00+8ene497011 0.0 1031150
06:00+10e410695 0.0 1031264
09:00+16e68505 0.0 1030534
12:00+19e56447 0.0 1030857
15:00+20e554352 0.0 1029957
18:00+17e476084 0.0 1029198
21:00+13e466413 0.0 102890